Regional Weather Roundup
Issued by NWS Wakefield, VA

Home | Current Version | Previous Version | Graphics & Text | Print | Product List | Glossary On
Versions: 1 2 3 4 5 6 7 8 9 10 11 12 13 14 15 16 17 18 19 20 21 22 23 24 25 26 27 28 29 30 31 32 33 34 35 36 37 38 39 40 41 42 43 44 45 46 47 48 49 50
490
ASUS41 KAKQ 240515
RWRAKQ

REGIONAL WEATHER ROUNDUP
NATIONAL WEATHER SERVICE WAKEFIELD VA
100 AM EDT FRI MAR 24 2017

Note: "fair" indicates few or no clouds below 12,000 feet with no
significant weather and/or obstructions to visibility. * = Denotes
station may not report precipitation (e.g., rain,snow,etc.),
thunder or fog.

VAZ042-051-052>054-056-240600-
NORTHERN VIRGINIA

CITY           SKY/WX    TMP DP  RH WIND       PRES   REMARKS
WASH NATIONAL  CLEAR     38  22  52 S9        30.53F
DULLES         CLEAR     36  20  52 S7        30.50F
FORT BELVOIR   CLEAR     35  21  55 SE6       30.52F
QUANTICO       CLEAR     39  26  59 S10       30.54F
FREDERICKSBRG* CLEAR     37  23  58 S9        30.53S
STAFFORD*      CLEAR     33  20  57 CALM      30.56F
WARRENTON      CLEAR     37  16  41 SE5       30.49S
CULPEPER*      CLEAR     31  21  67 CALM      30.51S
MANASSAS*      CLEAR     34  21  59 S7        30.51F
LEESBURG*      CLEAR     37  27  65 S7        30.50S
WINCHESTER     PTCLDY    37  18  44 S7        30.44S
FRONT ROYAL*     N/A    N/A N/A N/A MISG        N/A
LURAY*         CLEAR     32  27  80 CALM      30.44R
$$

VAZ048-049-060>072-079>083-240600-
CENTRAL AND SOUTH CENTRAL VIRGINIA

CITY           SKY/WX    TMP DP  RH WIND       PRES   REMARKS
RICHMOND       CLEAR     35  24  64 S9        30.54F
CHESTERFIELD*  FAIR      36  10  35 S10       30.56F
PETERSBURG*    CLEAR     34  23  64 S5        30.56F
HANOVER        CLEAR     36  21  54 SE8       30.55F
TAPPAHANNOCK*  CLEAR     34  11  38 SE6       30.55F
QUINTON*       FAIR      35  25  66 S6        30.55F
CHARLOTTSVILLE CLEAR     41  17  38 SW6       30.48S
GORDONSVILLE*  CLEAR     30  23  75 CALM      30.49F
ORANGE*        CLEAR     32  21  64 CALM      30.51S
LOUISA*        CLEAR     41  23  48 SE6       30.48F
BUMPASS*       FAIR      35  19  52 CALM      30.51F
FARMVILLE*     CLEAR     38  21  49 CALM      30.49F
CREWE*         FAIR      35  24  65 SE6       30.52F
FORT PICKETT*  FAIR      35  19  52 SE7       30.53F
CHASE CITY*    FAIR      35  21  57 SE7       30.51F
CLARKSVILLE*   FAIR      37  21  52 SE5       30.51S
SOUTH HILL*    CLEAR     36  25  63 SE5       30.60S
LAWRENCEVILLE* FAIR      35  26  70 SE6       30.55F
EMPORIA*       CLEAR     32  28  86 E5        30.58F
$$

VAZ088>098-240600-
SOUTHEAST VIRGINIA

CITY           SKY/WX    TMP DP  RH WIND       PRES   REMARKS
NORFOLK        CLEAR     34  23  64 S6        30.59S
VIRGINIA BEACH CLEAR     30  21  69 CALM      30.59F
NORFOLK NAVAL  CLEAR     35  22  58 S6        30.60F
WEST POINT*    CLEAR     37  26  64 SE8       30.58F
SALUDA*        FAIR      34  28  79 S6        30.57F
NEWPORT NEWS   CLEAR     30  24  78 CALM      30.59F
LANGLEY AFB    CLEAR     37  24  58 S7        30.58F
FORT EUSTIS    CLEAR     35  25  66 S9        30.55F
WILLIAMSBURG*  CLEAR     39  27  60 S5        30.58F
HR EXEC AP*    FAIR      27  19  74 CALM      30.59F
FRANKLIN*      CLEAR     33  24  70 SE3       30.60F
US460-WAKEFLD  CLEAR     34  24  67 S3        30.58F
$$

VAZ020-022-025-037-045-240600-
WEST CENTRAL AND SOUTHWEST VIRGINIA

CITY           SKY/WX    TMP DP  RH WIND       PRES   REMARKS
STAUNTON*      CLOUDY    33  20  60 SW5       30.46S
WAYNESBORO*    CLEAR     36  19  50 S3        30.45R
HOT SPRINGS VA CLEAR     36  10  35 S13G21    30.38R
LYNCHBURG      CLEAR     39  20  46 S7        30.49S
DANVILLE       CLEAR     41  23  48 CALM      30.49F
SOUTH BOSTON*  FAIR      38  19  47 CALM      30.51S
MARTINSVILLE   CLEAR     30  22  73 NW3       30.50S
ROANOKE        CLEAR     42  19  39 SE6       30.48S
BLACKSBURG     CLEAR     35  21  56 CALM      30.46S
DUBLIN*        CLEAR     43  23  46 S5        30.44S
MARION*        CLEAR     40  25  54 NE7       30.42R
HILLSVILLE*    CLEAR     40  22  48 S5        30.41R
RICHLANDS*     FAIR      46  25  43 CALM      30.34R
WISE*          CLEAR     50  25  37 CALM      30.35R
ABINGDON*      CLEAR     46  28  49 E3        30.37S
$$

MDZ021>025-VAZ099-100-240600-
SOUTHERN MARYLAND AND THE DELMARVA PENINSULA

CITY           SKY/WX    TMP DP  RH WIND       PRES   REMARKS
PATUXENT RIVER CLEAR     36  27  69 S7        30.55F
BAY BRIDGE APT CLEAR     37  25  60 S10       30.53F
LEONARDTOWN    CLEAR     32  23  69 CALM      30.55F
DOVER          CLEAR     30  24  79 S8        30.53F
GEORGETOWN     CLEAR     31  24  75 S7        30.56F
EASTON         CLEAR     34  21  60 S6        30.58F
CAMBRIDGE      CLEAR     30  25  80 SE7       30.56S
SALISBURY      CLEAR     31  25  78 S6        30.56F
OCEAN CITY     CLEAR     37  28  70 S6        30.58F
WALLOPS ISLAND CLEAR     35  29  78 S7        30.59F
ACCOMACK*      CLEAR     34  27  75 SE10      30.58F
$$

NCZ012>017-030>032-240600-
NORTH CENTRAL AND EASTERN NORTH CAROLINA

CITY           SKY/WX    TMP DP  RH WIND       PRES   REMARKS
ROANOKE RAPIDS FAIR      34  28  80 CALM      30.57S
RALEIGH        CLEAR     43  25  49 S8        30.53S
ELIZABETH CITY CLEAR     35  29  78 E6        30.62R
AHOSKIE*         N/A     33  27  80 CALM      30.60R
EDENTON*       CLEAR     35  31  84 E5        30.62R
CURRITUCK*     CLEAR     33  28  83 CALM      30.62R
KILL DEVIL HLS NOT AVBL
MANTEO         CLEAR     32  28  85 NE5       30.62R
CAPE HATTERAS  CLEAR     43  33  68 NE6       30.58S
TARBORO*       NOT AVBL
GOLDSBORO      CLEAR     37  34  87 E5        30.55F
WASHINGTON     CLEAR     33  28  81 E3        30.59F
GREENVILLE     CLEAR     36  30  80 CALM      30.57S
NEW BERN       CLEAR     38  31  76 E3        30.59S
WILMINGTON     CLEAR     36  33  89 NE6       30.55S
$$

VAZ048-240600-
ELSEWHERE

CITY           SKY/WX    TMP DP  RH WIND       PRES   REMARKS
HARRISBURG PA  PTCLDY    36  20  52 S8        30.49S
BALTIMORE      PTCLDY    35  15  44 CALM      30.52F
ANNAPOLIS      CLEAR     41  25  53 S12       30.52F
ANDREWS AFB    CLEAR     33  17  51 S9        30.51F
PHILADELPHIA   CLEAR     35  25  66 S9        30.54F
HENDERSON NC   CLEAR     38  21  50 S8        30.52F
GREENSBORO     PTCLDY    43  24  47 S10       30.47F
ROCKY MOUNT    CLEAR     39  32  76 SE6       30.56F
$$

VAZ100-240600-
MARINE

STATION/POSITION TIME  TEMP    WIND        PRES    WAVE   SWELL
                       AIR SEA DIR/SP/G            HT/PER HT/PER
                 (UTC) (F)     (DEG/KT/KT) (MB)    (FT/S) (FT/S)
CAPE MAY NJ      0442   37 42  190/  6/  8 1034.8F
LEWES DE         0448   34 42  210/  5/  9 1035.0F
OCEAN-CITY-INLET 0448   39 43  200/ 11/ 14 1036.0F
WACHAPREAGUE VA  0448   38 47  170/  7/ 11 1035.6F
THOMAS POINT MD  0500   41 44  170/ 21/ 22   N/A
GOOSES REEF MD   0500   42 43  170/ 17/ 19 1034.2    2/ 3
COVE POINT MD    0448   40     190/ 18/ 20 1035.0F
SOLOMONS ISLAND  0448   39 45  160/  9/ 12   N/A
BISHOPS HEAD MD  0448   41 45  160/ 14/ 16 1035.0F
PINEY POINT MD   0448          190/ 14/ 15   N/A
POTOMAC MD       0500   41 45  190/ 16/ 17 1034.0    2/ 3
CAMBRIDGE MD     0448   34 44  170/  4/  7 1033.9F
LEWISETTA VA     0448   38 46  200/ 11/ 14 1034.4F
RAPPAHANNOCK LGT 0448          150/ 13/ 15 1036.0F
STINGRAY PT      0450   41     190/ 16/ 17 1035.2F
YORK RVR RNG VA  0448   41     160/ 13/ 15 1034.8F
YORKTOWN VA      0448   37 48  160/  4/  5 1035.4F
JAMESTOWN VA     0500   37 50  150/ 10/ 14   N/A     0
DOMINION TERM VA 0448   39     150/  4/ 13 1035.9F
KIPTOPEKE VA     0448      47  140/  8/  9   N/A
CHES BAY BRIDGE  0436   39 47  160/  9/ 11 1036.1F
CAPE HENRY VA    0436   38     130/  8/ 10   N/A
WILLOUBY STN VA  0436   37     150/ 10/ 11 1036.7F
S CRANEY ISL VA  0436   39     150/  7/  9 1036.2R
CAPE HENRY BUOY  0442      45                N/A     3/ 7
CAPE CHARLES BUO 0451      45                N/A     3/ 8
OFFSHORE WE BUOY 0451      45                N/A     3/ 7
64NM E OF VA BCH 0450   43 48   70/  6/  8 1037.0R   4/ 7   3/ 7
DUCK PIER NC     0436   40 48   80/  8/ 10 1036.1R
44100 DUCK FRF   0435      47                N/A     4/ 7
44056 DUCK FRF   0430      47                N/A     3/ 8
OREGON INLET NC  0436   41 49   50/  5/  7 1035.9F
HATTERAS NC      0436   43 52   30/  7/ 10 1035.1F
DIAMOND SHLS NC  0450   53 71   40/ 10/ 16 1035.0F   7/10   7/10
CAPE LOOKOUT NC  0500   44      20/ 12/ 15 1034.4F
$$




USA.gov is the U.S. government's official web portal to all federal, state and local government web resources and services.